Location: �perlecques
(50.8057°N, 2.1521°E)
Time: 21:58:03
(UTC+00:00)

Cosmos 1607 - Pass Details

Date: 09 April 2020
Orbit: 917 x 985 km, 65.0° (Epoch: 22 May)

Event Time Altitude Azimuth Distance (km) Brightness Sun altitude
Exits shadow 23:12:03 74° 299° (WNW) 979 3.9 -30.5°
Maximum altitude 23:12:12 74° 313° (NW) 977 4.0 -30.5°
Drops below altitude 10° 23:18:28 10° 39° (NE) 2,684 6.7 -30.7°
Sets 23:21:04 0° 42° (NE) 3,643 7.5 -30.8°
